This is the latest recevied weather packets stored in our database for station/object WA6ODQ-13. If no packets are shown the sender has not sent any weather packets the latest 10 day(s).
| Time | Temp. | Humidity | Pressure | Rain* | Wind** | Luminosity | Snow |
|---|---|---|---|---|---|---|---|
| 1787895674 | 21.67° C | 49% | 1010.6 hPa | 0 mm | - | 0 W/m² | - |
| 1787895369 | 21.67° C | 48% | 1010.5 hPa | 0 mm | - | 0 W/m² | - |
| 1787895064 | 22.22° C | 48% | 1010.5 hPa | 0 mm | - | 0 W/m² | - |
| 1787894765 | 22.22° C | 47% | 1010.4 hPa | 0 mm | - | 0 W/m² | - |
| 1787894461 | 22.22° C | 46% | 1010.5 hPa | 0 mm | - | 0 W/m² | - |
| 1787894160 | 22.22° C | 47% | 1010.6 hPa | 0 mm | - | 0 W/m² | - |
| 1787893856 | 22.78° C | 46% | 1010.4 hPa | 0 mm | - | 0 W/m² | - |
| 1787893552 | 22.78° C | 46% | 1010.6 hPa | 0 mm | - | 0 W/m² | - |
| 1787893248 | 23.33° C | 46% | 1010.7 hPa | 0 mm | - | 0 W/m² | - |
| 1787892944 | 23.33° C | 46% | 1010.5 hPa | 0 mm | - | 0 W/m² | - |
| 1787892640 | 23.33° C | 47% | 1010.6 hPa | 0 mm | - | 0 W/m² | - |
| 1787892336 | 23.33° C | 48% | 1010.6 hPa | 0 mm | - | 0 W/m² | - |
| 1787892031 | 23.33° C | 48% | 1010.7 hPa | 0 mm | - | 0 W/m² | - |
| 1787891727 | 23.33° C | 48% | 1010.7 hPa | 0 mm | - | 0 W/m² | - |
| 1787891423 | 23.89° C | 47% | 1010.8 hPa | 0 mm | - | 0 W/m² | - |
| 1787891126 | 23.89° C | 47% | 1010.9 hPa | 0 mm | - | 0 W/m² | - |
| 1787890816 | 23.89° C | 49% | 1010.9 hPa | 0 mm | - | 0 W/m² | - |
| 1787890516 | 23.89° C | 48% | 1010.8 hPa | 0 mm | - | 0 W/m² | - |
| 1787890211 | 24.44° C | 47% | 1010.9 hPa | 0 mm | - | 0 W/m² | - |
| 1787889907 | 24.44° C | 46% | 1010.8 hPa | 0 mm | - | 0 W/m² | - |
| 1787889600 | 25° C | 45% | 1010.7 hPa | 0 mm | - | 0 W/m² | - |
| 1787889295 | 25.56° C | 42% | 1010.6 hPa | 0 mm | - | 0 W/m² | - |
| 1787888994 | 26.11° C | 38% | 1010.8 hPa | 0 mm | - | 0 W/m² | - |
| 1787888689 | 26.67° C | 36% | 1010.7 hPa | 0 mm | - | 0 W/m² | - |
| 1787888385 | 26.67° C | 36% | 1010.7 hPa | 0 mm | - | 0 W/m² | - |
* Rain latest hour (hover to see other rain measurements)
** Current wind speed in m/s (hover to see current wind gust speed)